Temperature
16 16 16 16 16 16 16 16 16 16 16 16 17 17 17 17 17 17 17 17 17 17 17 17 18 18 18 17 17 17 17 17 17 17 17 17 17 18 18 18 18 18 18
16 16 16 16 16 16 16 16 16 16 16 16 16 16 17 17 17 17 17 17 17 17 17 17 18 17 17 17 17 17 17 17 17 17 17 17 17 17 17 18 18 18 18
16 16 15 15 15 15 15 15 15 16 16 16 16 16 16 16 17 17 17 17 17 17 17 17 17 17 17 17 17 17 17 17 17 17 17 17 17 17 17 17 17 18 18
15 15 15 15 15 15 15 15 15 15 15 16 16 16 16 16 16 16 17 17 17 17 17 17 17 17 17 17 17 17 17 17 17 17 17 17 17 17 17 17 17 18 17
15 15 15 15 15 14 14 14 15 15 15 15 16 16 16 16 16 16 17 17 17 17 17 17 17 17 17 17 17 17 17 17 17 17 17 17 17 17 17 17 17 17 17
15 15 14 14 14 14 14 14 14 15 15 15 15 16 16 16 16 16 16 16 17 16 17 17 17 17 17 17 17 17 17 17 17 17 17 17 17 17 17 17 17 17 17
14 14 14 14 14 14 14 14 14 14 14 15 15 15 16 16 16 16 16 16 16 16 16 17 17 17 17 17 17 17 17 17 17 17 17 17 17 17 17 17 17 17 17
14 14 14 14 14 14 14 14 14 14 14 14 15 15 15 16 16 16 16 16 16 16 16 16 16 17 17 17 17 17 17 17 17 17 17 17 17 17 17 17 17 17 17
14 14 14 14 14 14 14 14 14 14 14 14 14 14 15 15 16 16 16 16 16 16 16 16 16 16 16 16 17 17 17 17 17 17 17 17 17 17 17 17 17 17 17
15 14 14 14 14 14 14 14 14 14 14 14 14 14 15 15 15 15 16 16 16 16 16 16 16 16 16 16 16 17 17 17 17 17 17 17 17 17 17 17 17 17 17
15 15 14 14 14 14 14 14 14 14 14 14 14 14 14 15 15 15 15 15 16 16 16 16 16 16 16 16 16 16 17 17 17 17 17 17 17 17 17 17 17 17 17
15 15 15 14 14 14 14 14 14 14 14 14 14 14 14 14 14 15 15 15 15 16 16 16 16 16 16 16 16 16 16 16 16 16 16 17 17 17 17 17 17 17 17
15 15 15 15 14 14 14 14 14 14 14 14 14 14 14 14 14 14 15 15 15 15 15 16 16 16 16 16 16 16 16 16 16 16 16 16 16 16 16 16 17 17 17
15 15 15 15 14 14 14 14 14 14 14 14 14 14 14 14 14 14 15 15 15 15 15 15 15 15 15 16 16 16 16 16 16 16 16 16 16 16 16 16 16 16 16
15 15 15 15 15 14 14 14 14 14 14 14 14 14 14 14 14 14 14 14 14 14 15 15 15 15 15 15 15 15 15 16 16 16 16 16 16 16 16 16 16 16 16
15 15 15 15 15 15 14 14 14 14 14 14 14 14 14 14 14 14 14 14 14 15 14 15 15 15 15 15 15 15 15 15 15 16 16 16 16 16 16 16 16 16 16
15 15 15 15 15 15 14 14 14 14 14 14 14 14 14 14 14 14 14 14 14 14 14 15 15 15 15 15 15 15 15 15 15 15 15 15 16 16 16 16 16 16 16
15 15 15 15 15 15 15 14 14 14 14 14 14 14 14 14 14 14 14 14 14 14 14 14 15 14 14 14 14 14 14 15 15 15 15 15 15 15 15 15 16 16 16
15 15 15 15 15 15 15 15 14 14 14 14 14 14 14 14 14 14 14 14 14 14 14 14 14 14 14 14 14 14 14 14 14 14 15 15 15 15 15 15 15 15 15
14 14 14 14 14 14 14 14 14 14 14 14 14 14 14 14 14 14 14 14 14 14 14 14 14 14 14 14 14 14 14 14 14 14 14 14 14 14 15 15 15 15 15
13 14 14 14 14 14 14 14 14 14 14 14 14 14 14 14 14 14 14 14 14 14 14 14 14 14 14 14 14 14 14 13 13 13 13 14 14 14 14 14 14 14 14
13 13 13 13 13 13 14 14 14 14 14 14 14 14 14 14 14 14 14 14 14 14 14 14 14 14 14 14 14 14 13 13 13 13 13 13 13 13 13 14 14 14 14
12 12 13 13 13 13 13 13 14 14 14 14 14 14 14 14 14 14 14 14 14 14 14 14 14 14 14 14 14 13 13 13 13 13 13 13 13 13 13 13 13 13 13
12 12 12 12 12 13 13 13 13 13 13 13 14 14 14 14 14 14 14 13 13 14 14 14 14 14 14 14 14 14 13 13 13 13 13 12 12 12 12 12 12 12 12
12 12 12 12 12 12 13 13 13 13 13 13 13 13 14 14 14 14 14 13 13 13 13 13 13 13 13 13 13 13 13 13 12 12 12 12 12 12 12 12 12 12 12
11 11 11 11 12 12 12 12 12 12 12 13 13 13 13 13 13 13 13 13 13 13 13 13 13 13 13 13 13 13 13 13 12 12 12 12 12 12 11 11 11 11 11
Wind_Speed
3 3 2 1 3 3 1 2 3 3 3 4 3 3 3 2 2 1 5 8 8 7 6 4 4 4 4 3 4 5 7 8 9 9 10 10 11 12 13 13 14 13 13
2 2 3 2 2 3 3 3 3 3 3 3 3 4 3 2 2 1 4 6 8 8 7 6 5 5 6 6 6 6 8 9 9 9 9 10 11 11 12 13 13 12 12
4 2 4 4 3 4 4 3 4 4 4 4 3 4 3 2 2 2 3 5 7 8 8 8 7 7 7 7 7 8 9 9 9 10 10 10 11 11 11 11 12 12 11
6 3 3 4 4 4 3 3 2 3 4 4 3 4 3 1 3 3 4 5 6 7 8 10 9 8 8 8 9 9 10 10 11 11 11 10 10 10 10 10 10 11 11
8 4 3 3 4 3 4 5 3 3 4 5 4 3 3 3 3 4 3 4 5 7 8 10 11 10 10 10 10 10 11 11 12 12 12 11 10 11 10 10 10 11 11
7 5 3 4 3 3 4 4 4 4 4 4 6 4 3 3 2 2 3 2 1 4 7 8 9 9 11 11 11 11 12 12 13 14 13 12 11 11 11 11 10 10 11
4 4 3 4 3 3 3 5 4 5 4 4 3 4 4 2 2 2 2 1 1 1 4 7 9 9 9 11 12 12 13 13 13 14 14 14 12 12 12 11 11 11 11
3 4 4 4 3 2 3 4 4 3 4 4 3 2 2 3 3 2 2 2 2 1 2 4 7 8 8 9 10 13 14 13 13 13 14 14 14 13 13 12 12 12 11
1 2 3 4 4 3 2 3 3 3 3 4 3 1 1 2 3 2 2 1 2 2 1 2 4 6 7 8 9 11 13 13 13 13 13 13 14 13 13 13 13 12 12
1 1 3 4 4 3 3 3 2 2 2 3 3 2 2 2 1 2 3 1 1 2 1 1 2 3 6 8 8 10 12 12 12 12 12 13 13 13 13 13 13 13 13
2 2 2 3 4 3 3 3 2 3 2 2 2 2 3 2 2 1 2 2 1 1 1 1 2 2 4 7 8 9 12 11 10 10 10 11 12 12 13 13 13 13 13
2 2 2 3 3 3 3 3 2 3 3 3 3 2 2 1 2 1 2 1 1 1 0 1 2 2 3 6 7 9 11 11 10 9 9 10 10 11 12 12 12 12 13
2 1 1 2 3 3 3 3 3 4 3 3 3 2 2 3 2 1 1 1 1 1 1 1 1 2 4 6 7 10 10 12 10 9 8 9 9 10 10 11 12 12 12
2 2 2 3 4 3 4 3 3 4 3 3 3 3 3 3 2 2 1 1 0 1 1 2 1 2 3 6 8 10 8 12 11 10 9 8 8 9 9 9 10 10 11
3 2 3 4 4 4 4 3 2 4 3 3 3 3 2 3 2 2 2 2 3 2 2 2 1 2 3 5 8 8 7 10 11 10 9 9 8 8 8 8 8 9 9
4 4 5 4 4 3 3 2 2 4 4 4 3 4 3 3 2 2 2 2 3 3 2 2 2 3 3 4 7 7 8 10 11 11 10 9 9 9 8 8 7 7 7
6 5 5 5 4 4 3 3 3 4 4 4 4 4 4 3 3 2 2 2 2 3 2 1 1 2 3 3 4 5 7 7 8 10 10 10 9 9 8 8 7 7 7
6 6 5 5 5 4 3 3 4 4 4 4 5 4 3 3 3 3 3 3 3 3 3 3 1 2 3 3 4 4 4 6 6 9 11 10 10 9 8 7 7 7 7
6 7 7 5 5 4 4 4 4 4 4 5 4 4 3 2 3 3 3 3 3 3 2 3 3 2 2 2 3 3 4 3 5 8 10 10 9 9 8 7 7 7 7
6 7 7 6 5 5 4 3 3 4 4 5 4 3 3 2 2 2 3 3 3 3 3 3 3 3 3 3 4 3 2 2 3 5 6 8 8 8 7 7 7 7 7
7 6 7 7 6 5 4 3 3 4 4 5 4 3 3 3 3 2 2 1 1 2 3 3 3 3 3 3 4 4 4 3 2 2 3 4 4 4 5 6 6 7 7
7 6 7 8 7 6 5 5 4 4 5 5 4 4 4 5 5 5 4 3 3 3 4 4 4 4 4 4 4 4 4 4 2 2 3 2 3 3 4 5 6 7 7
7 7 7 7 7 7 8 7 6 5 6 6 5 4 4 4 5 5 5 6 4 4 4 4 4 5 5 5 6 5 4 4 3 4 3 2 2 3 3 5 7 8 8
7 6 7 8 7 8 9 9 8 5 6 7 6 5 5 4 4 5 4 4 4 4 5 4 4 4 4 4 6 6 6 4 3 2 3 2 2 2 3 4 7 8 9
7 7 7 8 8 8 10 10 8 5 5 7 7 6 5 4 6 6 5 5 4 4 4 5 5 4 5 6 6 5 5 5 4 2 2 3 2 2 2 2 5 8 9
7 8 8 8 9 8 9 10 8 4 5 5 5 6 6 6 6 6 6 6 6 5 5 5 5 4 4 5 7 6 6 6 4 3 3 3 3 3 2 2 3 5 6
Wind_Direction
330 351 327 352 314 327 322 295 284 294 309 318 322 308 291 282 271 215 155 164 165 171 179 176 169 165 167 169 155 132 128 128 128 128 125 122 123 123 126 126 127 129 130
340 347 330 330 333 338 337 330 313 314 306 301 302 305 295 285 278 252 186 180 177 181 185 181 174 173 172 172 165 153 142 140 140 136 131 129 130 130 127 128 131 134 136
357 3 354 345 343 343 336 333 338 335 316 309 303 292 281 270 268 258 217 183 182 191 190 183 177 174 174 169 164 158 151 146 148 146 143 140 137 139 137 137 138 140 141
4 6 355 338 342 341 332 328 321 322 319 317 312 303 303 294 253 246 232 200 187 188 191 188 183 179 176 170 168 169 167 161 158 157 155 151 146 146 148 148 148 147 148
356 7 340 334 346 342 340 329 347 340 322 319 301 274 266 261 259 263 248 224 187 179 180 184 186 181 175 173 174 178 178 173 170 168 166 164 161 159 158 158 157 156 157
355 358 329 341 355 346 338 329 329 320 303 300 303 307 283 254 242 262 265 253 176 185 179 174 176 181 181 178 180 184 182 180 179 176 175 174 173 170 166 166 165 164 162
353 337 328 334 347 337 327 323 325 325 314 306 311 312 298 274 234 241 243 220 196 198 168 169 173 175 179 187 187 186 184 183 182 182 180 179 178 176 173 175 176 174 171
347 338 341 332 324 316 320 316 321 316 311 318 314 318 323 328 313 249 221 201 189 175 180 171 172 173 173 172 185 188 184 184 185 184 185 184 183 184 182 181 182 182 180
280 317 319 313 311 314 300 299 309 307 300 310 312 309 315 288 306 310 265 186 170 156 160 163 147 154 155 159 168 182 180 180 184 185 186 188 187 188 189 190 190 189 188
213 244 287 295 299 304 308 304 323 317 309 300 308 294 270 270 288 315 323 345 156 138 148 150 140 132 143 143 154 168 175 177 184 188 189 190 192 192 192 194 195 193 193
227 220 247 281 288 292 300 301 321 309 293 279 281 294 303 302 269 226 279 313 356 72 131 133 138 133 136 140 145 162 170 171 175 182 186 189 193 195 198 197 198 198 197
247 233 237 272 286 300 313 309 290 282 272 275 278 271 266 273 278 261 252 256 245 265 144 152 151 147 132 132 148 159 170 171 174 179 184 187 191 195 199 199 200 200 202
266 254 280 282 290 298 296 290 287 279 265 256 252 251 257 253 241 244 240 260 246 252 187 184 171 155 144 143 148 157 170 170 173 176 180 184 186 191 198 202 204 205 208
265 257 260 260 264 273 282 281 279 279 276 265 257 248 248 260 252 229 201 193 257 270 227 210 187 174 142 144 157 163 169 170 171 173 175 178 184 190 196 204 207 207 209
271 271 267 262 259 256 260 271 271 283 292 273 270 269 249 254 254 242 215 188 172 200 238 213 183 179 147 139 160 169 162 169 169 169 173 178 181 186 191 199 202 204 204
298 275 265 268 269 259 253 253 266 277 278 267 242 247 248 249 252 249 240 228 195 186 223 225 199 177 164 158 162 165 158 166 171 172 175 179 182 184 187 193 194 194 199
280 273 262 262 263 260 257 245 246 261 272 282 270 241 235 231 223 234 234 231 217 189 204 246 206 151 152 152 150 160 159 160 168 176 177 175 176 176 179 188 191 191 193
301 295 282 270 267 262 255 247 251 257 255 266 274 269 252 239 220 227 222 227 220 202 182 198 207 170 170 172 161 162 160 163 159 173 173 173 172 173 174 178 180 182 185
312 308 300 289 283 276 262 246 241 253 252 253 260 262 254 244 241 230 218 223 211 202 173 178 199 186 171 168 149 153 157 152 159 166 169 171 171 169 168 169 172 175 178
315 317 311 301 293 284 277 266 264 260 260 261 252 244 246 223 223 236 228 224 211 195 182 179 186 186 172 174 155 156 153 162 164 161 156 161 163 165 165 164 166 169 172
308 307 313 307 301 297 290 293 294 283 273 272 261 237 217 192 184 205 210 218 220 203 187 180 191 188 180 167 173 172 167 159 163 153 145 156 147 144 153 161 167 171 172
308 308 309 308 302 299 296 285 281 287 281 272 263 249 214 199 196 191 181 178 182 202 202 193 198 193 190 177 168 163 159 154 175 178 142 161 148 142 135 141 161 166 165
302 300 295 295 292 284 280 268 268 268 273 267 260 257 251 213 190 186 196 201 202 214 211 201 202 204 189 180 166 164 165 160 169 171 132 146 117 115 114 128 146 156 157
307 300 294 289 288 283 277 261 257 258 270 267 259 246 242 224 205 193 197 200 200 206 218 213 201 201 183 165 168 171 167 147 118 134 133 141 135 120 114 117 134 142 147
305 299 295 289 287 282 272 261 252 255 264 266 261 251 236 222 215 202 202 204 198 201 199 178 167 161 153 158 157 142 147 148 155 170 151 136 146 127 124 131 143 142 141
297 302 299 293 290 287 277 263 252 253 260 267 266 254 229 220 217 213 204 203 202 199 184 175 173 173 173 167 164 161 160 161 157 164 172 140 153 139 136 143 144 152 144
Height
1520 1519 1519 1518 1518 1517 1516 1516 1515 1515 1514 1514 1513 1514 1514 1515 1515 1516 1516 1517 1518 1519 1520 1520 1521 1522 1522 1523 1522 1522 1523 1526 1528 1529 1531 1533 1535 1538 1540 1543 1545 1548 1551
1520 1519 1518 1518 1517 1516 1516 1515 1514 1514 1513 1513 1512 1512 1513 1513 1513 1514 1515 1515 1516 1517 1518 1519 1520 1521 1522 1523 1523 1524 1526 1527 1529 1531 1533 1535 1537 1540 1542 1545 1547 1550 1552
1520 1518 1517 1517 1516 1515 1514 1514 1513 1512 1512 1512 1511 1511 1511 1511 1512 1512 1513 1514 1514 1515 1516 1517 1518 1520 1521 1522 1524 1525 1527 1528 1530 1532 1535 1537 1539 1541 1544 1546 1549 1551 1553
1519 1518 1517 1516 1515 1514 1513 1513 1512 1511 1511 1511 1510 1510 1510 1510 1510 1511 1512 1512 1513 1514 1514 1516 1517 1519 1520 1522 1523 1525 1527 1528 1530 1533 1535 1538 1540 1542 1545 1547 1549 1552 1554
1518 1517 1516 1515 1514 1513 1512 1512 1511 1510 1509 1509 1509 1508 1508 1508 1509 1509 1510 1510 1511 1512 1513 1514 1516 1517 1519 1521 1523 1524 1526 1529 1531 1533 1536 1538 1540 1542 1545 1547 1550 1552 1554
1517 1516 1515 1514 1513 1512 1511 1510 1510 1509 1508 1508 1507 1507 1507 1507 1507 1507 1508 1508 1509 1510 1511 1513 1514 1515 1518 1520 1522 1524 1526 1528 1530 1532 1535 1538 1540 1542 1545 1547 1550 1552 1554
1517 1516 1514 1513 1512 1511 1510 1509 1508 1508 1507 1507 1506 1505 1505 1505 1505 1505 1506 1507 1508 1508 1509 1511 1512 1514 1516 1518 1520 1522 1525 1527 1529 1531 1534 1537 1539 1542 1544 1547 1549 1551 1554
1516 1515 1514 1512 1512 1510 1509 1508 1508 1507 1506 1506 1506 1505 1505 1505 1504 1504 1504 1505 1506 1506 1508 1509 1511 1513 1514 1516 1519 1521 1523 1525 1528 1530 1533 1535 1538 1541 1543 1546 1548 1551 1553
1515 1514 1513 1512 1511 1510 1509 1508 1507 1506 1505 1505 1505 1506 1505 1504 1503 1503 1503 1504 1505 1506 1507 1508 1509 1511 1513 1515 1517 1519 1521 1524 1526 1528 1531 1534 1536 1539 1542 1544 1547 1549 1551
1514 1513 1512 1511 1510 1509 1508 1507 1506 1505 1504 1504 1504 1504 1505 1504 1504 1503 1503 1503 1503 1505 1506 1507 1509 1510 1512 1513 1515 1517 1520 1522 1525 1527 1529 1532 1534 1537 1540 1543 1545 1548 1550
1513 1512 1511 1510 1509 1508 1507 1506 1505 1504 1503 1503 1502 1502 1503 1503 1503 1503 1502 1502 1503 1504 1505 1506 1507 1509 1510 1512 1513 1515 1518 1520 1522 1525 1527 1530 1532 1535 1538 1540 1543 1545 1548
1513 1511 1510 1509 1508 1507 1506 1504 1503 1503 1502 1501 1501 1501 1501 1501 1501 1501 1501 1501 1502 1503 1503 1505 1506 1507 1508 1510 1512 1513 1516 1518 1520 1523 1525 1528 1530 1533 1535 1538 1540 1543 1545
1512 1510 1509 1508 1506 1505 1504 1503 1502 1501 1501 1500 1499 1499 1499 1500 1500 1500 1500 1500 1500 1501 1502 1503 1504 1505 1506 1508 1510 1512 1514 1516 1518 1521 1523 1526 1528 1530 1533 1535 1538 1540 1542
1511 1509 1507 1506 1505 1503 1502 1501 1500 1500 1499 1499 1498 1498 1498 1498 1498 1499 1499 1499 1499 1500 1500 1501 1502 1503 1504 1506 1507 1509 1511 1514 1516 1518 1521 1523 1525 1527 1530 1532 1535 1537 1539
1509 1507 1506 1504 1503 1502 1501 1500 1499 1498 1498 1497 1497 1496 1496 1496 1496 1497 1497 1498 1499 1499 1499 1500 1500 1501 1502 1504 1505 1507 1509 1511 1513 1516 1518 1520 1523 1525 1527 1529 1531 1533 1536
1507 1505 1504 1503 1502 1501 1499 1498 1497 1496 1496 1495 1495 1494 1494 1494 1494 1494 1495 1495 1496 1497 1497 1498 1498 1499 1500 1502 1504 1505 1507 1509 1511 1513 1515 1517 1520 1521 1524 1526 1528 1530 1532
1505 1503 1502 1501 1500 1499 1498 1497 1496 1495 1494 1493 1493 1493 1492 1492 1492 1492 1492 1493 1494 1495 1495 1496 1496 1497 1498 1500 1501 1503 1504 1506 1508 1510 1512 1515 1517 1519 1521 1523 1525 1526 1528
1502 1501 1500 1499 1498 1497 1496 1494 1493 1493 1492 1492 1491 1491 1490 1490 1490 1490 1490 1491 1491 1492 1493 1493 1494 1495 1496 1498 1499 1500 1502 1504 1505 1507 1510 1512 1514 1516 1518 1519 1521 1523 1525
1499 1498 1497 1496 1495 1494 1493 1492 1491 1490 1490 1489 1489 1488 1488 1488 1488 1488 1488 1488 1489 1490 1490 1491 1491 1493 1494 1495 1497 1498 1500 1501 1503 1505 1507 1509 1511 1513 1514 1516 1518 1519 1521
1496 1495 1494 1493 1492 1491 1490 1489 1489 1488 1487 1487 1486 1486 1485 1485 1485 1485 1485 1486 1486 1487 1487 1488 1489 1490 1492 1493 1495 1496 1497 1499 1501 1503 1504 1506 1508 1509 1511 1513 1514 1516 1517
1494 1492 1490 1489 1488 1487 1487 1486 1485 1484 1484 1484 1483 1483 1483 1482 1482 1482 1483 1483 1483 1484 1484 1485 1486 1488 1489 1490 1492 1493 1495 1497 1499 1500 1502 1503 1505 1506 1508 1510 1511 1512 1514
1490 1489 1487 1485 1484 1483 1483 1482 1482 1481 1480 1480 1480 1480 1480 1479 1479 1479 1479 1480 1480 1481 1481 1482 1483 1484 1485 1487 1489 1490 1492 1494 1496 1498 1499 1501 1502 1504 1505 1506 1508 1509 1511
1487 1485 1483 1482 1480 1480 1479 1478 1478 1477 1476 1476 1476 1476 1476 1476 1476 1476 1476 1476 1477 1478 1479 1480 1480 1481 1482 1484 1485 1487 1489 1491 1493 1494 1497 1498 1500 1501 1502 1504 1505 1506 1507
1484 1481 1480 1478 1476 1475 1475 1474 1473 1473 1472 1471 1471 1471 1472 1472 1472 1472 1472 1473 1473 1474 1475 1476 1477 1478 1479 1481 1482 1484 1486 1488 1491 1492 1494 1496 1497 1498 1500 1501 1502 1503 1504
1480 1478 1476 1474 1472 1470 1470 1469 1469 1468 1467 1466 1466 1467 1467 1467 1468 1468 1469 1469 1469 1470 1471 1472 1473 1475 1476 1477 1479 1481 1483 1485 1486 1489 1491 1492 1494 1495 1497 1498 1499 1501 1502
1476 1474 1472 1470 1468 1466 1465 1465 1464 1463 1462 1461 1461 1461 1462 1462 1463 1463 1464 1464 1465 1466 1467 1468 1469 1471 1472 1474 1476 1477 1479 1481 1483 1485 1487 1489 1491 1493 1495 1496 1497 1498 1499